Estación de Purranque

Ultimos registro cada 15 minutos 35
Estación Fecha / Hora Temperatura Humedad Lluvia Velocidad Dirección Radiación Presion
35 Purranque 02-09-2026 08:30 8,3 93,4 0 2 15 73,1 1002,4
34 Purranque 02-09-2026 08:15 8,3 93,5 0 2 17 61,9 1002,3
33 Purranque 02-09-2026 08:00 8,3 93,6 0 2,3 11 158,1 1002,2
32 Purranque 02-09-2026 07:45 7,9 94,9 0 2 10 83,1 1001,9
31 Purranque 02-09-2026 07:30 7,5 96,1 0 1,7 13 8,1 1001,7
30 Purranque 02-09-2026 07:15 7,5 97,5 0 1,7 15 1,9 1001,8
29 Purranque 02-09-2026 07:00 6,8 100 0 1,3 25 0,6 1001,7
28 Purranque 02-09-2026 06:45 6,4 100 0 1 65 0,6 1001,5
27 Purranque 02-09-2026 06:30 5,3 100 0 0,3 79 0,6 1001,4
26 Purranque 02-09-2026 06:15 4,5 100 0 0,3 93 0,6 1001,2
25 Purranque 02-09-2026 06:00 4,4 100 0 0,7 122 0,6 1001,1
24 Purranque 02-09-2026 05:45 5,3 100 0 0,3 72 0,6 1001,1
23 Purranque 02-09-2026 05:30 5,3 100 0 0,7 83 0,6 1001
22 Purranque 02-09-2026 05:15 5,9 100 0 0,3 98 0,6 1000,7
21 Purranque 02-09-2026 05:00 5,9 100 0 0 1 0,6 1000,6
20 Purranque 02-09-2026 04:45 6,3 99,7 0,2 0 0 0,6 1000,8
19 Purranque 02-09-2026 04:30 6,8 99,1 0 0,3 11 0,6 1000,6
18 Purranque 02-09-2026 04:15 7,7 98,9 0 0,7 6 0,6 1000,5
17 Purranque 02-09-2026 04:00 7,7 97,8 0 1 8 0,6 1000,6
16 Purranque 02-09-2026 03:45 8,2 97,8 0 1,3 0 0,6 1000,5
15 Purranque 02-09-2026 03:30 8,4 97,1 0 2 6 0,6 1000,6
14 Purranque 02-09-2026 03:15 8,8 97,2 0 2 13 0,6 1000,6
13 Purranque 02-09-2026 03:00 8,9 97,2 0 2,7 13 0,6 1000,6
12 Purranque 02-09-2026 02:45 9 96,7 0 2,7 11 0,6 1000,6
11 Purranque 02-09-2026 02:30 9 97,1 0 2,3 1 0,6 1000,5
10 Purranque 02-09-2026 02:15 9,2 96,9 0 2,3 15 0,6 1000,7
9 Purranque 02-09-2026 02:00 9,1 97,2 0 2,3 28 0,6 1000,7
8 Purranque 02-09-2026 01:45 9,1 97,1 0 2,3 22 0,6 1000,7
7 Purranque 02-09-2026 01:30 9 97,2 0 2,3 18 0,6 1000,6
6 Purranque 02-09-2026 01:15 8,9 97,3 0 2,7 20 0,6 1000,7
5 Purranque 02-09-2026 01:00 8,9 97,2 0 3 18 0,6 1000,8
4 Purranque 02-09-2026 00:45 8,9 97,5 0 2,7 21 0,6 1000,9
3 Purranque 02-09-2026 00:30 8,7 97,7 0 2,3 20 0,6 1001,1
2 Purranque 02-09-2026 00:15 8,7 97,7 0 2,7 22 0,6 1001,2
1 Purranque 02-09-2026 00:00 8,7 97,9 0,2 2,7 27 0,6 1001,3